Regional Weather Roundup
Issued by NWS

Home | Current Version | Previous Version | Text Only | Print | Product List | Glossary On
Versions: 1 2 3 4 5 6 7 8 9 10 11 12 13 14 15 16 17 18 19 20 21 22 23 24 25 26 27 28 29 30 31 32 33 34 35 36 37 38 39 40 41 42 43 44 45 46 47 48 49 50
000
ASUS43 KMPX 170610
RWRMN
WEATHER ROUNDUP FOR MINNESOTA
NATIONAL WEATHER SERVICE TWIN CITIES/CHANHASSEN MN
100 AM CDT TUE OCT 17 2017


NOTE: "FAIR" INDICATES FEW OR NO CLOUDS BELOW 12,000 FEET WITH NO
SIGNIFICANT WEATHER AND/OR OBSTRUCTIONS TO VISIBILITY. N/A MEANS
CURRENT SKY AND/OR WEATHER CONDITIONS ARE NOT AVAILABLE.

MNZ060>063-068>070-170700-
   Twin Cities Metro

CITY           SKY/WX    TMP DP  RH WIND       PRES   REMARKS
TWIN CITIES    CLOUDY    56  40  55 SW8       29.96S
6HR MIN TEMP:  56; 6HR MAX TEMP:  62;

ST PAUL        PTCLDY    46  42  86 CALM      29.97S
CRYSTAL        CLOUDY    54  38  54 SW3       29.95S
BLAINE         CLOUDY    55  39  54 SW6       29.95S
LAKEVILLE      CLEAR     55  39  54 SW5       29.96F
EDEN PRAIRIE   CLOUDY    52  39  61 SW5       29.96S
6HR MIN TEMP:  51; 6HR MAX TEMP:  59;

SOUTH ST PAUL  CLOUDY    51  39  62 CALM      29.96S
LAKE ELMO      FAIR      46  39  76 CALM      29.97S
$$
MNZ001>005-007-008-013>017-022>024-027-028-170700-
   Northwest Minnesota

CITY           SKY/WX    TMP DP  RH WIND       PRES   REMARKS
BEMIDJI        CLOUDY    45  35  68 W3        29.90S
HALLOCK        PTCLDY    41  30  65 CALM      29.87R
ROSEAU           N/A     50  37  62 W9        29.87R
WARROAD        CLEAR     46  37  71 W8        29.87R
THIEF RVR FALL CLEAR     47  34  60 W3        29.91R
CROOKSTON      CLEAR     46  36  66 CALM      29.91S
FOSSTON        CLEAR     39  32  75 S6        29.92S
DETROIT LAKES  CLOUDY    46  41  81 CALM      29.93S
MOORHEAD       CLOUDY    46  37  71 SW3       29.93S
PARK RAPIDS    CLOUDY    44  38  79 SW3       29.92R
MAHNOMEN       FAIR      44  37  78 S6        29.92S
$$
MNZ006-009>011-018-025>026-170700-
   North Central Minnesota

CITY           SKY/WX    TMP DP  RH WIND       PRES   REMARKS
BAUDETTE       CLOUDY    49  36  61 W5        29.85R
FLAG ISLAND    CLEAR     54  36  50 W12       29.83R
INTL FALLS     CLEAR     48  35  60 W7        29.83S
6HR MIN TEMP:  43; 6HR MAX TEMP:  54;

WASKISH        CLOUDY    46  43  87 SW5       29.88R
BIG FORK       CLOUDY    43  36  75 CALM      29.88R
LONGVILLE      CLOUDY    48  39  71 W3        29.90S
GRAND RAPIDS   CLOUDY    53  39  59 W5        29.91R
CRANE LAKE     CLEAR     41  36  81 CALM      29.86R
ORR            CLOUDY    46  36  66 CALM      29.84R
COOK           CLOUDY    45  37  76 SW3       29.87R
WALKER         FAIR      49  37  62 W7        29.91R
$$
MNZ012-019>021-037-170700-
   Northeast Minnesota

CITY           SKY/WX    TMP DP  RH WIND       PRES   REMARKS
DULUTH         CLOUDY    47  38  71 W10       29.88S
6HR MIN TEMP:  46; 6HR MAX TEMP:  54;

ELY            CLEAR     48  36  61 SW7       29.85S
HIBBING        CLOUDY    34  32  92 CALM      29.88R
EVELETH        CLOUDY    37  36  93 W3        29.89R
DULUTH HARBOR  CLOUDY    54  43  66 SW9       29.88S
TWO HARBORS    CLEAR     52  39  62 W5        29.85S
SILVER BAY     CLEAR     52  37  58 CALM      29.84S
GRAND MARAIS     N/A     43  39  86 CALM      29.83R
G MARAIS ARPRT CLEAR     46  34  61 W6        29.84S
$$
MNZ029>031-032-039>041-046>048-054>057-064-170700-
   West Central Minnesota

CITY           SKY/WX    TMP DP  RH WIND       PRES   REMARKS
FERGUS FALLS   CLOUDY    46  39  76 CALM      29.95S
WHEATON        CLEAR     48  39  71 SW5       29.97R
MORRIS         CLEAR     45  39  81 W5        29.95R
ALEXANDRIA     CLEAR     50  41  71 W5        29.95S
ELBOW LAKE     FAIR      44  40  85 CALM      29.95S
WADENA         CLOUDY    46  39  76 SW3       29.93S
GLENWOOD       CLOUDY    48  41  76 W8        29.95S
APPLETON       CLEAR     45  39  81 W6        29.95S
BENSON         CLOUDY    43  39  87 CALM      29.97R
ORTONVILLE     CLEAR     52  41  66 W5        29.96R
MADISON        CLEAR     50  41  71 W6        29.96R
WILLMAR        FAIR      43  37  81 CALM      29.97S
$$
MNZ033>034-036-042>043-049>051-058-059-170700-
   Central Minnesota

CITY           SKY/WX    TMP DP  RH WIND       PRES   REMARKS
ST CLOUD       CLOUDY    42  39  89 S3        29.94S
6HR MIN TEMP:  41; 6HR MAX TEMP:  57;

SAUK CENTRE    FAIR      47  39  73 CALM      29.95R
PAYNESVILLE    CLOUDY    44  40  85 W5        29.96R
AITKIN         CLOUDY    48  37  66 SW3       29.90S
PINE RIVER     CLOUDY    46  37  71 CALM      29.95S
BRAINERD       PTCLDY    43  38  82 CALM      29.93R
STAPLES        PTCLDY    45  37  76 CALM      29.93S
LONG PRAIRIE   FAIR      43  37  81 CALM      29.94S
LITTLE FALLS   CLEAR     39  36  87 CALM      29.94R
LITCHFIELD     CLOUDY    50  41  71 CALM      29.96S
BUFFALO        CLOUDY    45  37  74 CALM      29.97R
MAPLE LAKE     CLOUDY    48  41  75 CALM      29.96R
HUTCHINSON     PTCLDY    45  40  82 CALM      29.98S
$$
MNZ037-044-045-052-053-170700-
   East Central Minnesota

CITY           SKY/WX    TMP DP  RH WIND       PRES   REMARKS
PRINCETON      CLOUDY    48  39  71 CALM      29.95S
MORA           CLOUDY    37  36  93 CALM      29.95R
CAMBRIDGE      PTCLDY    46  37  71 CALM      29.95S
RUSH CITY      CLOUDY    43  37  80 CALM      29.94S
MOOSE LAKE     CLOUDY    41  36  81 CALM      29.90R
HINCKLEY       FAIR      37  37 100 CALM      29.93S
CLOQUET        CLOUDY    48  36  61 SW6       29.90R
MCGREGOR       CLOUDY    52  39  62 W3        29.91S
$$
MNZ071>073-080-081-089-090-097-098-170700-
   Southwest Minnesota

CITY           SKY/WX    TMP DP  RH WIND       PRES   REMARKS
MONTEVIDEO     CLEAR     48  37  66 W3        29.96S
GRANITE FALLS  CLEAR     44  39  85 SW5       29.98S
CANBY          CLEAR     56  41  55 SW9       29.98R
MARSHALL       CLEAR     55  40  56 W12       29.98R
REDWOOD FALLS  CLEAR     49  38  65 SW5       29.97S
OLIVIA         CLEAR     43  37  81 SW5       29.96S
PIPESTONE      CLEAR     46  37  71 CALM      30.01S
WORTHINGTON    CLEAR     52  39  61 SW10      30.02S
JACKSON        CLEAR     52  37  58 SW7       30.02S
TRACY          CLEAR     53  42  64 SW8       29.99R
SLAYTON        CLEAR     52  40  64 SW5       30.01S
$$
MNZ065>067-074>077-082>085-091>093-170700-
   South Central Minnesota

CITY           SKY/WX    TMP DP  RH WIND       PRES   REMARKS
MANKATO        CLEAR     52  39  61 S6        29.99S
NEW ULM          N/A     48  37  66 SW5       29.98S
ST JAMES       CLEAR     52  39  62 SW6       30.00S
FAIRMONT       CLEAR     52  41  66 SW9       30.02R
GLENCOE        CLEAR     49  40  72 SW5       29.96S
FARIBAULT      CLEAR     55  39  54 SW7G17    29.99S
OWATONNA       CLEAR     55  39  54 SW9       30.00R
WASECA         CLEAR     52  37  58 SW8       30.02R
ALBERT LEA     CLEAR     57  43  58 SW7       30.01S
$$
MNZ078>079-086>088-094>096-170700-
   Southeast Minnesota

CITY           SKY/WX    TMP DP  RH WIND       PRES   REMARKS
ROCHESTER      CLEAR     54  40  59 SW21G28   30.01F
6HR MIN TEMP:  50; 6HR MAX TEMP:  56;

RED WING       CLEAR     55  36  47 W6        29.97S
STANTON        CLEAR     55  40  56 SW7       29.97S
DODGE CENTER   CLEAR     52  37  58 SW14      30.00S
WINONA         CLEAR     55  37  50 SW6       30.01F
AUSTIN         CLEAR     48  39  71 S8        30.02F
PRESTON        CLEAR     52  38  58 SW12      30.04S
$$
ABBREVIATIONS USED IN REMARKS
   TC - TEMPERATURES IN CELSIUS
  WCI - WIND CHILL INDEX
   HX - HEAT INDEX
  VSB - VISIBILITY
$$




USA.gov is the U.S. government's official web portal to all federal, state and local government web resources and services.